Regional Weather Roundup
Issued by NWS

Home | Current Version | Previous Version | Graphics & Text | Print | Product List | Glossary Off
Versions: 1 2 3 4 5 6 7 8 9 10 11 12 13 14 15 16 17 18 19 20 21 22 23 24 25 26 27 28 29 30 31 32 33 34 35 36 37 38 39 40 41 42 43 44 45 46 47 48 49 50

000
ASUS45 KBOU 282307
RWRCO

WEATHER ROUNDUP FOR COLORADO
NATIONAL WEATHER SERVICE DENVER/BOULDER CO
500 PM MDT THU MAY 28 2015

NOTE: "FAIR" INDICATES FEW OR NO CLOUDS BELOW 12000 FEET WITH NO
SIGNIFICANT WEATHER AND/OR OBSTRUCTIONS TO VISIBILITY.

COZ001>005-013-030-031-290000-
...NORTHWEST COLORADO...

CITY           SKY/WX    TMP DP  RH WIND       PRES   REMARKS
CRAIG          CLOUDY    57  41  55 W10       30.17R
HAYDEN         CLOUDY    55  36  47 W13       30.19R
MEEKER         CLOUDY    52  40  63 NE5G20    30.18F
MOUNT WERNER   NOT AVBL
STEAMBOAT SPGS CLOUDY    48  38  70 CALM      30.19R
WALDEN         CLOUDY    46  34  61 S8G21     30.21R
$$

COZ006>008-011-290000-
...WEST CENTRAL VALLEYS...

CITY           SKY/WX    TMP DP  RH WIND       PRES   REMARKS
GRAND JUNCTION CLOUDY    62  44  51 W17       30.13R
MONTROSE       LGT RAIN  60  43  53 NW23G30   30.13R
EAGLE          PTSUNNY   66  36  32 NW21G32   30.12R
RIFLE          CLOUDY    57  39  51 NW14G24   30.16R
DELTA          CLOUDY    67  47  47 W16       30.10R
NUCLA          CLOUDY    72  32  23 NW12      30.11S
$$

COZ017>023-064>068-290000-
...SOUTHWEST COLORADO...

CITY           SKY/WX    TMP DP  RH WIND       PRES   REMARKS
DURANGO        PTSUNNY   69  30  23 W12       30.10F
CORTEZ         PTSUNNY   73  36  25 N8        30.08F
PAGOSA SPRINGS MOSUNNY   64  30  27 CALM      30.17F
TELLURIDE      PTSUNNY   56  31  38 W8        30.28F
WOLF CREEK PAS NOT AVBL
$$

COZ009-010-012-014-032>034-037-058>063-290000-
...CENTRAL COLORADO...

CITY           SKY/WX    TMP DP  RH WIND       PRES   REMARKS
ASPEN          CLOUDY    56  34  43 N3        30.16F
BUENA VISTA    MOSUNNY   66  19  16 W23G33    30.11S
COPPER MTN     MOSUNNY   45  23  42 W20G28    30.35F
BERTHOUD PASS  CLOUDY    32  27  80 NW15G24   30.37R WCI  22
COTTONWOOD PAS MOSUNNY   59  14  17 W9G20     30.22F
GUNNISON       MOSUNNY   61  28  29 W36G51    30.22R
KREMMLING      CLOUDY    54  36  50 N9G22     30.17R
LEADVILLE      MOSUNNY   51  25  36 NW17G23   30.23F
MONARCH PASS   MOSUNNY   41  23  48 W38G48    30.43F
SALIDA         MOSUNNY   70  21  16 W20G30    30.15F
SUNLIGHT       CLOUDY    37  34  87 SW6       30.36R
WILKERSON PASS MOSUNNY   54  18  24 SW9G16    30.31S
$$

COZ069>075-290000-
...SAN LUIS VALLEY/SANGRE DE CRISTO MOUNTAINS...

CITY           SKY/WX    TMP DP  RH WIND       PRES   REMARKS
ALAMOSA        PTSUNNY   70  27  20 W23G31    30.11S
LA VETA PASS   PTSUNNY  N/A N/A N/A MISG      30.24F
SAGUACHE       PTSUNNY   59  37  44 S8        30.15F
$$

COZ035-036-038>040-290000-
...NORTHERN COLORADO FRONT RANGE...

CITY           SKY/WX    TMP DP  RH WIND       PRES   REMARKS
DENVER INTL AP CLOUDY    69  47  45 E14       29.97F
DMNS CITY PARK   N/A     72  40  30 E10       29.96F
AURORA         PTSUNNY   68  47  46 SE10      29.98F
FRONT RANGE AP PTSUNNY   72  48  43 SE12      29.98F
ERIE MUNI ARPT PTSUNNY   71  44  37 NE6       29.96F
BOULDER MUN AP PTSUNNY   66  50  55 W6        29.98R
CENTENNIAL     PTSUNNY   66  44  45 SE9       29.99F
BROOMFIELD     PTSUNNY   68  41  37 NE9       29.99S
FORT COLLINS   PTSUNNY   72  45  37 E5        29.96S
LONGMONT       PTSUNNY   70  44  39 E6        29.99R
$$

COZ041-046-047-076>085-087-088-290000-
...PIKES PEAK/PALMER DIVIDE AND SOUTHERN FOOTHILLS...

CITY           SKY/WX    TMP DP  RH WIND       PRES   REMARKS
COLO. SPRINGS  PTSUNNY   73  39  29 NW17      29.97F
A. F. ACADEMY  PTSUNNY   65  42  43 N15       30.00F
ELLICOTT       PTSUNNY  N/A N/A N/A W25G33    29.95F
FALCON         PTSUNNY   65  43  43 N55G102   30.03F
FORT CARSON    PTSUNNY   69  36  30 SW18G25   29.94F
LIMON          CLOUDY    64  47  53 N17       29.94F
MONUMENT HILL  PTSUNNY   59  41  51 W9        30.06F
TRINIDAD       LGT RAIN  71  40  32 NW16G33   29.98R
$$

COZ042>045-048>051-090-091-290000-
...NORTHEAST COLORADO...

CITY           SKY/WX    TMP DP  RH WIND       PRES   REMARKS
GREELEY ARPT   PTSUNNY   73  43  33 NE3       29.94F
AKRON          LGT RAIN  55  51  86 E10       29.99F
BURLINGTON     LGT RAIN  58  46  64 E15       29.94F
WRAY           TSTM      70  49  47 S17G29    29.90R
STERLING       CLOUDY    57  52  82 NE9       29.94R
HOLYOKE        TSTM      61  50  67 NW23G41   29.94R
FORT MORGAN    CLOUDY    59  49  69 NE9       29.97R
$$

COZ086-089-092>099-290000-
...SOUTHEAST COLORADO...

CITY           SKY/WX    TMP DP  RH WIND       PRES   REMARKS
PUEBLO         CLOUDY    69  41  36 SW13      29.90F
LA JUNTA       PTSUNNY   77  56  48 SW15      29.85F
LAMAR          CLOUDY    73  51  46 S8        29.84S
SPRINGFIELD      N/A     58  51  78 E23G29    29.87F
$$


USA.gov is the U.S. government's official web portal to all federal, state and local government web resources and services.